Location: Maddington
(51.2000°N, 1.9167°W)
Time: 10:20:01
(UTC+00:00)

Cosmos 1125 Rocket - Visible Passes

Search period start: 18 June 2021 00:00
Search period end: 28 June 2021 00:00
Orbit: 758 x 779 km, 74.0° (Epoch: 18 June)

Date Brightness Start Highest point End Pass type
(mag) Time Alt. Az. Time Alt. Az. Time Alt. Az.
18 Jun 6.3 00:37:23 10° N 00:40:19 15° NE 00:43:13 10° ENE visible
18 Jun 4.2 02:18:22 10° NNW 02:23:34 59° ENE 02:28:46 10° SE visible
19 Jun 6.6 00:01:27 10° NNE 00:02:51 11° NNE 00:04:15 10° NE visible
19 Jun 4.9 01:41:34 10° NNW 01:46:31 39° NE 01:51:27 10° SE visible
20 Jun 5.5 01:04:53 10° N 01:09:22 28° NE 01:13:51 10° ESE visible
20 Jun 3.6 02:46:39 10° NNW 02:51:50 60° WSW 02:57:01 10° S visible
21 Jun 6.0 00:28:17 10° N 00:32:07 20° NE 00:35:57 10° E visible
21 Jun 3.6 02:09:41 10° NNW 02:14:59 88° ENE 02:20:16 10° SSE visible
21 Jun 6.2 23:51:51 10° N 23:54:46 15° NE 23:57:40 10° ENE visible
22 Jun 4.1 01:32:49 10° NNW 01:38:02 58° ENE 01:43:14 10° SE visible
22 Jun 6.4 23:15:57 10° NNE 23:17:19 11° NNE 23:18:40 10° NE visible
23 Jun 4.8 00:56:03 10° NNW 01:00:59 39° NE 01:05:55 10° SE visible
23 Jun 4.1 02:38:13 10° NW 02:43:05 39° WSW 02:47:56 10° S visible
24 Jun 5.4 00:19:20 10° N 00:23:49 27° NE 00:28:18 10° ESE visible
24 Jun 3.6 02:01:07 10° NNW 02:06:19 61° WSW 02:11:30 10° S visible
24 Jun 5.8 23:42:45 10° N 23:46:34 20° NE 23:50:24 10° E visible
25 Jun 3.5 01:24:09 10° NNW 01:29:27 87° ENE 01:34:45 10° SSE visible
25 Jun 5.2 03:07:39 10° WNW 03:10:48 16° W 03:13:57 10° SW visible
25 Jun 6.1 23:06:20 10° N 23:09:13 15° NE 23:12:06 10° ENE visible
26 Jun 4.1 00:47:17 10° NNW 00:52:30 58° ENE 00:57:42 10° SE visible
26 Jun 4.7 02:29:57 10° NW 02:34:14 25° W 02:38:18 11° SSW visible
26 Jun 6.3 22:30:26 10° NNE 22:31:46 11° NNE 22:33:05 10° NE visible
27 Jun 4.7 00:10:30 10° NNW 00:15:26 39° NE 00:20:23 10° SE visible
27 Jun 4.1 01:52:40 10° NW 01:57:32 39° WSW 02:01:27 15° SSW visible
27 Jun 5.3 23:33:48 10° N 23:38:17 27° NE 23:42:46 10° ESE visible
